GW4974 Weather Reports


Display with metric or nautical units.
time (UTC)temp
F
wind
direction
speed
MPH
gust
MPH
rain 1hr
in
rain 24hr
in
rain mn
in
humidity
%
barometer
mb
20260509032306 51 293 1.0 2.0 0.00 0.00 0.00 84 1013.7
20260509031800 51 32 0.0 3.0 0.00 0.00 0.00 82 1013.7
20260509031257 51 265 0.0 2.0 0.00 0.00 0.00 80 1013.7
20260509030755 50 134 1.0 2.0 0.00 0.00 0.00 85 1014.0
20260509030253 51 277 2.0 2.0 0.00 0.00 0.00 87 1014.0
20260509025749 51 286 2.0 3.0 0.00 0.00 0.00 86 1013.9
20260509025245 51 203 0.0 2.0 0.00 0.00 0.00 81 1013.8
20260509024740 51 103 0.0 2.0 0.00 0.00 0.00 78 1013.9
20260509024236 51 186 1.0 1.0 0.00 0.00 0.00 76 1014.0
20260509023734 52 212 0.0 2.0 0.00 0.00 0.00 77 1014.0
20260509023230 52 242 2.0 2.0 0.00 0.00 0.00 76 1014.1
20260509022727 52 253 0.0 2.0 0.00 0.00 0.00 75 1014.2
20260509022225 51 304 0.0 2.0 0.00 0.00 0.00 77 1014.1
20260509021721 51 247 1.0 2.0 0.00 0.00 0.00 80 1013.9
20260509021218 51 297 0.0 2.0 0.00 0.00 0.00 85 1013.7
20260509020717 51 310 0.0 1.0 0.00 0.00 0.00 81 1013.8
20260509020213 52 287 0.0 1.0 0.00 0.00 0.00 83 1013.7
20260509015712 52 245 0.0 1.0 0.00 0.00 0.00 78 1013.8
20260509015209 52 303 1.0 1.0 0.00 0.00 0.00 77 1013.7
20260509014705 53 247 0.0 1.0 0.00 0.00 0.00 75 1013.8
20260509014202 53 89 0.0 0.0 0.00 0.00 0.00 72 1013.7
20260509013659 53 109 0.0 2.0 0.00 0.00 0.00 75 1013.9
20260509013155 53 256 0.0 2.0 0.00 0.00 0.00 72 1013.7
20260509012651 54 113 0.0 1.0 0.00 0.00 0.00 69 1013.6
20260509012149 54 310 0.0 4.0 0.00 0.00 0.00 69 1013.5
20260509011646 54 89 0.0 1.0 0.00 0.00 0.00 68 1013.3
20260509011143 54 129 0.0 1.0 0.00 0.00 0.00 67 1013.2
20260509010641 54 161 0.0 1.0 0.00 0.00 0.00 67 1013.3
20260509010138 55 230 0.0 2.0 0.00 0.00 0.00 68 1013.3
20260509005635 55 28 0.0 3.0 0.00 0.00 0.00 66 1013.0
20260509005131 55 107 2.0 2.0 0.00 0.00 0.00 68 1012.8
20260509004627 55 195 0.0 3.0 0.00 0.00 0.00 67 1013.0
20260509004124 55 129 2.0 2.0 0.00 0.00 0.00 67 1013.0
20260509003623 55 227 0.0 1.0 0.00 0.00 0.00 68 1013.2
20260509003120 55 177 0.0 2.0 0.00 0.00 0.00 67 1013.0
20260509002617 55 161 0.0 3.0 0.00 0.00 0.00 66 1013.0
20260509002114 55 254 0.0 4.0 0.00 0.00 0.00 67 1013.0
20260509001612 55 248 0.0 3.0 0.00 0.00 0.00 66 1013.1
20260509001107 55 237 1.0 3.0 0.00 0.00 0.00 65 1013.2
20260509000606 55 109 1.0 2.0 0.00 0.00 0.00 67 1013.0
20260508235559 55 260 1.0 2.0 0.00 0.00 0.00 66 1012.9
20260508235055 55 145 1.0 5.0 0.00 0.00 0.00 69 1012.8
20260508234553 55 250 1.0 3.0 0.00 0.00 0.00 69 1012.8
20260508234050 55 134 1.0 2.0 0.00 0.00 0.00 70 1012.9
20260508233549 55 246 0.0 4.0 0.00 0.00 0.00 69 1012.8
20260508233046 55 230 0.0 2.0 0.00 0.00 0.00 70 1012.7
20260508232543 55 231 2.0 2.0 0.00 0.00 0.00 70 1012.6
20260508232040 55 231 2.0 2.0 0.00 0.00 0.00 71 1012.5
20260508231537 55 219 0.0 2.0 0.00 0.00 0.00 70 1012.4
20260508231034 55 237 0.0 2.0 0.00 0.00 0.00 69 1012.5
20260508230531 56 286 0.0 3.0 0.00 0.00 0.00 67 1012.4
20260508230027 56 180 1.0 6.0 0.00 0.00 0.00 67 1012.3
20260508225526 56 275 1.0 9.0 0.00 0.00 0.00 68 1012.5
20260508225022 55 263 1.0 2.0 0.00 0.00 0.00 67 1012.4
20260508224520 55 211 1.0 3.0 0.00 0.00 0.00 68 1012.4
20260508224016 55 147 2.0 2.0 0.00 0.00 0.00 68 1012.5
20260508223514 56 187 2.0 3.0 0.00 0.00 0.00 67 1012.2
20260508223011 56 210 2.0 4.0 0.00 0.00 0.00 66 1012.4
20260508222509 56 140 0.0 2.0 0.00 0.00 0.00 66 1012.4
20260508222005 56 229 0.0 3.0 0.00 0.00 0.00 64 1012.5
20260508221501 55 135 0.0 2.0 0.00 0.00 0.00 65 1012.3
20260508220957 55 108 2.0 4.0 0.00 0.00 0.00 66 1012.5
20260508220454 55 186 1.0 4.0 0.00 0.00 0.00 68 1012.8
20260508215950 55 223 2.0 4.0 0.00 0.00 0.00 66 1012.9
20260508215447 55 85 2.0 2.0 0.00 0.00 0.00 72 1012.7
20260508214944 54 233 0.0 2.0 0.00 0.00 0.00 67 1012.8
20260508214442 54 140 1.0 2.0 0.00 0.00 0.00 68 1012.8
20260508213938 54 139 3.0 3.0 0.00 0.00 0.00 67 1012.7
20260508213435 54 114 1.0 3.0 0.00 0.00 0.00 71 1012.7
20260508212931 55 215 0.0 2.0 0.00 0.00 0.00 69 1012.8
20260508212428 55 227 0.0 2.0 0.00 0.00 0.00 69 1012.6
20260508211923 55 170 1.0 4.0 0.00 0.00 0.00 67 1012.6
20260508211419 55 263 3.0 5.0 0.00 0.00 0.00 65 1012.5
20260508210917 56 186 2.0 6.0 0.00 0.00 0.00 63 1012.4
20260508210413 58 238 3.0 6.0 0.00 0.00 0.00 59 1012.2
20260508205909 59 268 2.0 3.0 0.00 0.00 0.00 57 1012.0
20260508205407 59 133 2.0 6.0 0.00 0.00 0.00 57 1012.0
20260508204902 59 150 1.0 3.0 0.00 0.00 0.00 58 1011.9
20260508204400 59 241 0.0 2.0 0.00 0.00 0.00 57 1011.9
20260508203855 59 119 1.0 3.0 0.00 0.00 0.00 57 1012.3
20260508203352 59 59 1.0 3.0 0.00 0.00 0.00 55 1011.9
20260508202847 60 152 2.0 3.0 0.00 0.00 0.00 53 1011.9
20260508202345 60 126 2.0 3.0 0.00 0.00 0.00 50 1011.9
20260508201842 61 121 4.0 4.0 0.00 0.00 0.00 50 1011.9
20260508201339 61 111 0.0 6.0 0.00 0.00 0.00 51 1011.9
20260508200835 62 239 3.0 3.0 0.00 0.00 0.00 49 1012.1
20260508200332 62 237 2.0 2.0 0.00 0.00 0.00 51 1012.2
20260508195828 62 144 1.0 2.0 0.00 0.00 0.00 50 1012.5
20260508195325 63 112 2.0 3.0 0.00 0.00 0.00 47 1012.4
20260508194821 63 250 2.0 3.0 0.00 0.00 0.00 47 1012.6
20260508194319 64 180 1.0 3.0 0.00 0.00 0.00 46 1012.6
20260508193816 62 173 1.0 6.0 0.00 0.00 0.00 47 1012.5
20260508193313 65 94 2.0 4.0 0.00 0.00 0.00 47 1012.9
20260508192809 63 105 3.0 3.0 0.00 0.00 0.00 46 1012.7
20260508192306 60 216 3.0 4.0 0.00 0.00 0.00 51 1012.6
20260508191803 61 190 2.0 4.0 0.00 0.00 0.00 53 1012.6
20260508191300 61 213 1.0 4.0 0.00 0.00 0.00 50 1012.6
20260508190757 61 237 4.0 5.0 0.00 0.00 0.00 51 1012.7
20260508190253 61 275 0.0 5.0 0.00 0.00 0.00 49 1012.8
20260508185749 62 261 2.0 4.0 0.00 0.00 0.00 52 1013.0
20260508185247 61 217 2.0 4.0 0.00 0.00 0.00 51 1013.1
20260508184744 61 248 2.0 3.0 0.00 0.00 0.00 51 1013.0
20260508184241 59 236 2.0 10.0 0.00 0.00 0.00 59 1013.0
20260508183738 59 98 4.0 8.0 0.00 0.00 0.00 55 1013.2
20260508183234 57 223 3.0 8.0 0.00 0.00 0.00 59 1013.2
20260508182730 55 293 0.0 6.0 0.00 0.00 0.00 62 1013.4
20260508182227 56 215 1.0 6.0 0.00 0.00 0.00 59 1013.6
20260508181723 58 205 2.0 10.0 0.00 0.00 0.00 53 1013.6
20260508181220 58 197 1.0 3.0 0.00 0.00 0.00 54 1013.6
20260508180717 58 176 0.0 4.0 0.00 0.00 0.00 54 1013.3
20260508180214 58 41 2.0 2.0 0.00 0.00 0.00 51 1013.0
20260508175710 59 85 3.0 4.0 0.00 0.00 0.00 49 1013.1
20260508175207 61 211 3.0 4.0 0.00 0.00 0.00 48 1013.0
20260508174705 61 248 4.0 6.0 0.00 0.00 0.00 46 1013.1
20260508174201 60 276 3.0 7.0 0.00 0.00 0.00 47 1013.1
20260508173658 61 148 0.0 3.0 0.00 0.00 0.00 47 1013.2
20260508173154 59 73 0.0 6.0 0.00 0.00 0.00 50 1013.2
20260508172652 60 120 4.0 5.0 0.00 0.00 0.00 47 1013.4
20260508172148 59 159 1.0 4.0 0.00 0.00 0.00 50 1013.4
20260508171645 59 242 2.0 5.0 0.00 0.00 0.00 51 1013.3
20260508171141 58 278 0.0 3.0 0.00 0.00 0.00 52 1013.6
20260508170638 59 233 3.0 3.0 0.00 0.00 0.00 50 1013.4
20260508170136 58 224 2.0 6.0 0.00 0.00 0.00 51 1013.5
20260508165633 59 123 2.0 4.0 0.00 0.00 0.00 49 1013.4
20260508165130 59 209 0.0 9.0 0.00 0.00 0.00 47 1013.4
20260508164626 60 130 2.0 4.0 0.00 0.00 0.00 47 1013.4
20260508164123 61 153 3.0 5.0 0.00 0.00 0.00 47 1013.3
20260508163621 63 144 2.0 4.0 0.00 0.00 0.00 53 1013.4
20260508163117 61 153 2.0 6.0 0.00 0.00 0.00 46 1013.1
20260508162614 60 252 2.0 6.0 0.00 0.00 0.00 47 1013.3
20260508162111 61 244 5.0 12.0 0.00 0.00 0.00 46 1013.4
20260508161608 60 173 1.0 4.0 0.00 0.00 0.00 48 1013.4
20260508161106 60 286 2.0 8.0 0.00 0.00 0.00 47 1013.6
20260508160604 59 258 3.0 4.0 0.00 0.00 0.00 47 1013.8
20260508160100 59 236 2.0 6.0 0.00 0.00 0.00 48 1013.6
20260508155557 59 259 5.0 5.0 0.00 0.00 0.00 47 1013.6
20260508155054 58 221 0.0 7.0 0.00 0.00 0.00 46 1013.6
20260508154551 60 254 5.0 8.0 0.00 0.00 0.00 48 1013.4
20260508154048 59 173 0.0 4.0 0.00 0.00 0.00 49 1013.5
20260508153545 60 248 5.0 6.0 0.00 0.00 0.00 49 1013.6
20260508153041 59 256 1.0 5.0 0.00 0.00 0.00 49 1013.5
20260508152539 58 101 2.0 3.0 0.00 0.00 0.00 49 1013.6
20260508152034 57 139 0.0 3.0 0.00 0.00 0.00 50 1013.7
20260508151531 58 227 2.0 3.0 0.00 0.00 0.00 53 1013.6
20260508151027 59 224 1.0 2.0 0.00 0.00 0.00 51 1013.6
20260508150525 58 240 3.0 4.0 0.00 0.00 0.00 50 1013.6
20260508150020 58 123 2.0 4.0 0.00 0.00 0.00 54 1013.7
20260508145518 58 214 4.0 4.0 0.00 0.00 0.00 52 1013.6
20260508145009 58 252 5.0 8.0 0.00 0.00 0.00 51 1013.7
20260508144506 57 181 1.0 4.0 0.00 0.00 0.00 54 1013.7
20260508144004 57 213 4.0 5.0 0.00 0.00 0.00 54 1013.8
20260508143501 57 259 3.0 3.0 0.00 0.00 0.00 54 1013.9
20260508142957 56 130 2.0 3.0 0.00 0.00 0.00 52 1013.7
20260508142455 56 250 3.0 10.0 0.00 0.00 0.00 54 1013.7
20260508141950 55 268 2.0 5.0 0.00 0.00 0.00 57 1013.7
20260508141447 56 297 0.0 3.0 0.00 0.00 0.00 56 1013.8
20260508140945 55 121 2.0 4.0 0.00 0.00 0.00 55 1013.6
20260508140442 54 88 1.0 4.0 0.00 0.00 0.00 56 1013.6
20260508135937 54 193 0.0 4.0 0.00 0.00 0.00 62 1013.8
20260508135434 53 149 0.0 3.0 0.00 0.00 0.00 62 1013.9
20260508134931 52 216 1.0 4.0 0.00 0.00 0.00 65 1014.0
20260508134427 52 253 3.0 4.0 0.00 0.00 0.00 64 1014.2
20260508133924 51 100 2.0 4.0 0.00 0.00 0.00 60 1014.0
20260508133422 50 136 2.0 5.0 0.00 0.00 0.00 64 1014.1
20260508132919 50 237 2.0 4.0 0.00 0.00 0.00 65 1014.3
20260508132417 51 121 5.0 9.0 0.00 0.00 0.00 59 1014.0
20260508131913 51 180 1.0 3.0 0.00 0.00 0.00 65 1014.2
20260508131408 50 158 1.0 3.0 0.00 0.00 0.00 70 1014.4
20260508130906 48 223 2.0 7.0 0.00 0.00 0.00 69 1014.3
20260508130402 47 238 1.0 4.0 0.00 0.00 0.00 78 1014.4
20260508125858 45 114 2.0 3.0 0.00 0.00 0.00 86 1014.3
20260508125354 45 134 2.0 3.0 0.00 0.00 0.00 85 1014.2
20260508124853 43 156 0.0 2.0 0.00 0.00 0.00 88 1014.3
20260508124350 42 117 1.0 2.0 0.00 0.00 0.00 87 1014.5
20260508123848 41 287 2.0 3.0 0.00 0.00 0.00 89 1014.4
20260508123346 41 250 2.0 2.0 0.00 0.00 0.00 91 1014.4
20260508122842 41 83 1.0 3.0 0.00 0.00 0.00 92 1014.5
20260508122338 41 131 0.0 2.0 0.00 0.00 0.00 93 1014.6
20260508121836 40 84 1.0 2.0 0.00 0.00 0.00 94 1014.6
20260508121334 40 66 2.0 2.0 0.00 0.00 0.00 94 1014.6
20260508120831 40 99 1.0 2.0 0.00 0.00 0.00 93 1014.6
20260508120329 40 180 0.0 3.0 0.00 0.00 0.00 91 1014.7
20260508115826 40 161 1.0 2.0 0.00 0.00 0.00 90 1014.5
20260508115324 40 190 0.0 2.0 0.00 0.00 0.00 90 1014.7
20260508114820 39 149 2.0 3.0 0.00 0.00 0.00 89 1014.8
20260508114318 39 239 0.0 2.0 0.00 0.00 0.00 91 1015.0
20260508113814 39 89 2.0 3.0 0.00 0.00 0.00 91 1014.8
20260508113313 39 197 1.0 2.0 0.00 0.00 0.00 91 1014.8
20260508112808 39 167 1.0 3.0 0.00 0.00 0.00 91 1014.5
20260508112307 39 213 2.0 2.0 0.00 0.00 0.00 93 1014.6
20260508111802 39 158 0.0 2.0 0.00 0.00 0.00 93 1014.7
20260508111259 38 146 2.0 2.0 0.00 0.00 0.00 94 1014.7
20260508110755 38 93 1.0 2.0 0.00 0.00 0.00 95 1014.8
20260508110253 38 152 0.0 2.0 0.00 0.00 0.00 96 1014.6
20260508105753 38 102 0.0 2.0 0.00 0.00 0.00 96 1014.5
20260508105250 38 243 1.0 2.0 0.00 0.00 0.00 95 1014.6
20260508104747 38 155 0.0 2.0 0.00 0.00 0.00 94 1014.5
20260508104244 38 190 0.0 2.0 0.00 0.00 0.00 93 1014.5
20260508103741 37 163 1.0 2.0 0.00 0.00 0.00 94 1014.3
20260508103238 37 280 0.0 2.0 0.00 0.00 0.00 94 1014.4
20260508102735 37 265 0.0 2.0 0.00 0.00 0.00 94 1014.3
20260508102233 37 262 0.0 3.0 0.00 0.00 0.00 94 1014.2
20260508101730 36 319 0.0 2.0 0.00 0.00 0.00 95 1014.2
20260508101228 36 227 0.0 2.0 0.00 0.00 0.00 95 1014.1
20260508100725 36 59 0.0 2.0 0.00 0.00 0.00 95 1014.3
20260508100223 36 262 1.0 2.0 0.00 0.00 0.00 94 1014.0
20260508095719 36 145 1.0 2.0 0.00 0.00 0.00 94 1014.2
20260508095217 37 113 1.0 2.0 0.00 0.00 0.00 93 1014.2
20260508094713 38 100 1.0 2.0 0.00 0.00 0.00 91 1014.0
20260508094210 38 246 0.0 2.0 0.00 0.00 0.00 91 1014.1
20260508093707 37 253 1.0 2.0 0.00 0.00 0.00 92 1014.0
20260508093205 37 297 2.0 3.0 0.00 0.00 0.00 92 1014.1
20260508092702 37 110 2.0 2.0 0.00 0.00 0.00 93 1013.9
20260508092201 38 330 1.0 2.0 0.00 0.00 0.00 92 1014.0
20260508091658 38 290 2.0 2.0 0.00 0.00 0.00 90 1014.0
20260508091155 38 290 2.0 3.0 0.00 0.00 0.00 91 1013.9
20260508090653 38 223 1.0 3.0 0.00 0.00 0.00 89 1014.0
20260508090150 38 262 1.0 2.0 0.00 0.00 0.00 90 1014.1
20260508085645 38 266 2.0 3.0 0.00 0.00 0.00 93 1014.1
20260508085143 37 337 1.0 2.0 0.00 0.00 0.00 93 1013.8
20260508084639 38 264 2.0 3.0 0.00 0.00 0.00 94 1014.1
20260508084136 38 257 0.0 2.0 0.00 0.00 0.00 94 1014.1
20260508083634 38 0 1.0 2.0 0.00 0.00 0.00 94 1014.0
20260508083131 38 306 0.0 2.0 0.00 0.00 0.00 94 1014.0
20260508082626 38 239 2.0 3.0 0.00 0.00 0.00 94 1014.1
20260508082124 39 107 0.0 2.0 0.00 0.00 0.00 94 1013.9
20260508081621 39 214 0.0 2.0 0.00 0.00 0.00 94 1013.9
20260508081117 40 194 1.0 2.0 0.00 0.00 0.00 90 1013.9
20260508080615 40 174 1.0 2.0 0.00 0.00 0.00 84 1013.9
20260508080113 40 242 0.0 2.0 0.00 0.00 0.00 85 1014.0
20260508075608 40 272 1.0 2.0 0.00 0.00 0.00 87 1013.9
20260508075106 40 301 1.0 2.0 0.00 0.00 0.00 90 1013.9
20260508074604 40 180 1.0 2.0 0.00 0.00 0.00 88 1013.9
20260508074100 40 277 0.0 3.0 0.00 0.00 0.00 90 1013.8
20260508073558 39 326 2.0 2.0 0.00 0.00 0.00 90 1013.8
20260508073055 40 275 0.0 3.0 0.00 0.00 0.00 92 1013.8
20260508072550 40 303 1.0 2.0 0.00 0.00 0.00 92 1013.7
20260508072048 40 285 0.0 2.0 0.00 0.00 0.00 89 1013.8
20260508071546 40 258 2.0 3.0 0.00 0.00 0.00 89 1013.8
20260508071044 39 238 0.0 2.0 0.00 0.00 0.00 92 1013.8
20260508070541 39 184 2.0 2.0 0.00 0.00 0.00 94 1013.9
20260508070039 39 259 2.0 2.0 0.00 0.00 0.00 94 1014.0
20260508065536 39 179 0.0 2.0 0.00 0.00 0.00 93 1014.0
20260508065035 39 230 0.0 2.0 0.00 0.00 0.00 94 1014.1
20260508064532 40 139 1.0 2.0 0.00 0.00 0.00 94 1013.9
20260508064030 40 299 0.0 2.0 0.00 0.00 0.00 93 1013.9
20260508063527 40 302 0.0 2.0 0.00 0.00 0.00 92 1014.0
20260508063025 40 262 0.0 3.0 0.00 0.00 0.00 91 1014.0
20260508062517 41 125 0.0 2.0 0.00 0.00 0.00 91 1014.1
20260508062013 40 267 1.0 2.0 0.00 0.00 0.00 90 1014.1
20260508061511 40 265 2.0 2.0 0.00 0.00 0.00 92 1014.2
20260508061007 40 247 1.0 2.0 0.00 0.00 0.00 95 1014.1
20260508060505 40 85 2.0 2.0 0.00 0.00 0.00 94 1014.2
20260508060001 40 317 0.0 2.0 0.00 0.00 0.00 94 1014.1
20260508055458 40 297 1.0 2.0 0.00 0.00 0.00 95 1014.2
20260508054954 40 260 1.0 3.0 0.00 0.00 0.00 96 1014.4
20260508054451 40 310 0.0 2.0 0.00 0.00 0.00 95 1014.2
20260508053948 40 286 0.0 2.0 0.00 0.00 0.00 95 1014.3
20260508053445 41 302 2.0 2.0 0.00 0.00 0.00 94 1014.3
20260508052943 41 245 0.0 2.0 0.00 0.00 0.00 94 1014.2
20260508052440 41 303 1.0 2.0 0.00 0.00 0.00 95 1014.4
20260508051936 41 237 0.0 2.0 0.00 0.00 0.00 94 1014.4
20260508051431 41 234 0.0 2.0 0.00 0.00 0.00 95 1014.2
20260508050928 41 276 2.0 2.0 0.00 0.00 0.00 95 1014.3
20260508050424 41 316 0.0 2.0 0.00 0.00 0.00 95 1014.2
20260508045920 41 263 1.0 2.0 0.00 0.00 0.00 95 1014.3
20260508045419 41 283 0.0 2.0 0.00 0.00 0.00 95 1014.2
20260508044916 41 230 1.0 2.0 0.00 0.00 0.00 94 1014.2
20260508044413 41 264 0.0 2.0 0.00 0.00 0.00 94 1014.1
20260508043903 41 3 0.0 3.0 0.00 0.00 0.00 94 1014.3
20260508043401 41 247 1.0 2.0 0.00 0.00 0.00 94 1014.2
20260508042857 42 245 0.0 2.0 0.00 0.00 0.00 94 1014.1
20260508042355 42 310 0.0 2.0 0.00 0.00 0.00 93 1014.1
20260508041851 42 341 1.0 3.0 0.00 0.00 0.00 92 1014.0
20260508041348 42 276 1.0 2.0 0.00 0.00 0.00 93 1014.0
20260508040844 43 84 1.0 2.0 0.00 0.00 0.00 92 1013.9
20260508040342 43 203 0.0 2.0 0.00 0.00 0.00 90 1013.8
20260508035839 43 279 0.0 2.0 0.00 0.00 0.00 88 1013.8
20260508035336 43 283 2.0 2.0 0.00 0.00 0.00 90 1013.8
20260508034833 43 57 1.0 4.0 0.00 0.00 0.00 92 1013.6
20260508034330 43 239 0.0 2.0 0.00 0.00 0.00 91 1013.7
20260508033827 43 297 0.0 3.0 0.00 0.00 0.00 91 1013.7
20260508033325 44 246 1.0 2.0 0.00 0.00 0.00 91 1013.8
20260508032822 44 249 0.0 3.0 0.00 0.00 0.00 90 1013.7